Weather History for KGAG - November, 2012

Change the Weather History Date:

Wednesday, November 14, 2012

  Actual Average Record
Temperature  
Mean Temperature 46 °F -  
Max Temperature 63 °F 59 °F 85 °F (1988)
Min Temperature 28 °F 33 °F 7 °F (1959)
Degree Days  
Heating Degree Days 20    
Moisture  
Dew Point 19 °F    
Average Humidity 40    
Maximum Humidity 67    
Minimum Humidity 15    
Precipitation  
Precipitation 0.00 in - - ()
Sea Level Pressure  
Sea Level Pressure 30.25 in    
Wind  
Wind Speed 8 mph (SSW)    
Max Wind Speed 20 mph    
Max Gust Speed -    
Visibility 10 miles    
Events      
Averages and records for this station are not official NWS values.
T = Trace of Precipitation, MM = Missing Value Source: NWS Daily Summary

Daily Weather History Graph

Daily Weather History Graph

Search for Another Location

Airport or City:

Trip Planner

Search our weather history database for the weather conditions in past years. The results will help you decide how hot, cold, wet, or windy it might be!

Date:

Astronomy

Nov. 14, 2012 Rise Set
Actual Time 7:15 AM CST 5:31 PM CST
Civil Twilight 6:48 AM CST 5:58 PM CST
Nautical Twilight 6:17 AM CST 6:29 PM CST
Astronomical Twilight 5:46 AM CST 7:00 PM CST
Moon 8:05 AM CST (11/14) 6:23 PM CST (11/14)
Length of Visible Light 11h 10m
Length of Day
10h 15m
New Moon, 1% of the Moon is Illuminated
Nov 14
New Moon
Nov 20
First Quarter
Nov 28
Full
Dec 6
Last Quarter
Dec 13
New

Hourly Weather History & Observations

Time (CST) Temp. Windchill Dew Point Humidity Pressure Visibility Wind Dir Wind Speed Gust Speed Precip Events Conditions
12:53 AM 35.1 °F 27.9 °F 18.0 °F 50% 30.29 in 10.0 mi SSW 9.2 mph - N/A   Clear
1:53 AM 36.0 °F 29.6 °F 18.0 °F 48% 30.28 in 10.0 mi SSW 8.1 mph - N/A   Clear
2:53 AM 37.0 °F 31.0 °F 17.1 °F 44% 30.28 in 10.0 mi SW 8.1 mph - N/A   Clear
3:53 AM 30.9 °F 24.3 °F 18.0 °F 59% 30.28 in 10.0 mi WSW 6.9 mph - N/A   Clear
4:53 AM 30.0 °F 26.5 °F 18.0 °F 61% 30.29 in 10.0 mi SW 3.5 mph - N/A   Clear
5:53 AM 28.9 °F 21.9 °F 19.0 °F 67% 30.30 in 10.0 mi SSW 6.9 mph - N/A   Clear
6:53 AM 28.0 °F 22.8 °F 17.1 °F 63% 30.32 in 10.0 mi WSW 4.6 mph - N/A   Clear
7:53 AM 30.0 °F 26.5 °F 18.0 °F 61% 30.33 in 10.0 mi West 3.5 mph - N/A   Clear
8:53 AM 37.0 °F 34.5 °F 18.0 °F 46% 30.34 in 10.0 mi West 3.5 mph - N/A   Clear
9:53 AM 44.1 °F 40.8 °F 18.0 °F 35% 30.33 in 10.0 mi WNW 5.8 mph - N/A   Clear
10:53 AM 48.9 °F - 19.0 °F 31% 30.32 in 10.0 mi Variable 4.6 mph - N/A   Clear
11:53 AM 53.1 °F - 19.0 °F 26% 30.30 in 10.0 mi WSW 4.6 mph - N/A   Clear
12:53 PM 57.0 °F - 19.9 °F 24% 30.27 in 10.0 mi Calm Calm - N/A   Clear
1:53 PM 61.0 °F - 18.0 °F 19% 30.23 in 10.0 mi Calm Calm - N/A   Clear
2:53 PM 63.0 °F - 16.0 °F 16% 30.20 in 10.0 mi Variable 3.5 mph - N/A   Clear
3:53 PM 63.0 °F - 14.0 °F 15% 30.19 in 10.0 mi Calm Calm - N/A   Clear
4:53 PM 61.0 °F - 19.0 °F 20% 30.17 in 10.0 mi SSE 9.2 mph - N/A   Clear
5:53 PM 50.0 °F - 21.9 °F 33% 30.19 in 10.0 mi SSE 9.2 mph - N/A   Clear
6:53 PM 46.9 °F - 23.0 °F 39% 30.20 in 10.0 mi South 11.5 mph - N/A   Clear
7:53 PM 48.0 °F - 21.9 °F 36% 30.19 in 10.0 mi South 15.0 mph - N/A   Clear
8:53 PM 48.9 °F - 26.1 °F 41% 30.18 in 10.0 mi South 18.4 mph - N/A   Clear
9:53 PM 48.0 °F - 25.0 °F 41% 30.17 in 10.0 mi South 17.3 mph - N/A   Clear
10:53 PM 48.0 °F - 23.0 °F 37% 30.16 in 10.0 mi South 18.4 mph - N/A   Clear
11:53 PM 46.9 °F - 21.9 °F 37% 30.15 in 10.0 mi South 19.6 mph - N/A   Clear